"2010-01-10 00:00:00",1578518,7.67,179.3,6.801,1.27,7.847,101.9669,4.319,5.301,13.89,0,109.8,13.48,5.09,141.3
"2010-01-10 00:00:30",1578519,6.786,172.8,5.496,1.016,6.292,101.9683,4.322,5.237,13.88,0,109.8,13.48,5.09,134.8
"2010-01-10 00:01:00",1578520,7.774,179.8,6.83,1.255,8.63,101.968,4.322,5.492,14.14,0,109.8,13.48,5.09,141.8
"2010-01-10 00:01:30",1578521,7.466,177.2,6.839,1.258,8.6,101.9718,4.331,5.481,14.11,0,109.7,13.48,5.10,139.2
"2010-01-10 00:02:00",1578522,8.47,181.5,3.612,0.756,10.12,101.984,4.362,5.563,14.21,0,109.8,13.48,5.13,143.5
"2010-01-10 00:02:30",1578523,7.915,179.1,5.339,1.101,9.05,101.9905,4.379,5.459,14.11,0,109.8,13.48,5.15,141.1
"2010-01-10 00:03:00",1578524,7.112,172.3,5.888,1.245,7.01,101.9933,4.386,5.432,14.18,0,109.7,13.48,5.15,134.3
"2010-01-10 00:03:30",1578525,7.179,172,6.396,1.179,7.041,101.9939,4.388,5.365,14.16,0,109.7,13.48,5.16,134.0
"2010-01-10 00:04:00",1578526,7.62,173.1,6.242,1.241,7.784,101.9928,4.385,5.528,14.45,0,109.7,13.48,5.15,135.1
"2010-01-10 00:04:30",1578527,8.25,177.3,5.235,1.007,9.41,101.9855,4.366,5.622,14.57,0,109.7,13.48,5.13,139.3
"2010-01-10 00:05:00",1578528,8.58,179.4,4.614,0.852,9.56,101.9827,4.359,5.629,14.57,0,109.7,13.48,5.13,141.4
"2010-01-10 00:05:30",1578529,8.64,180.4,4.511,0.884,9.3,101.9833,4.361,5.605,14.54,0,109.7,13.48,5.13,142.4
"2010-01-10 00:06:00",1578530,8.29,177.2,5.567,1.125,8.39,101.9836,4.361,5.49,14.45,0,109.7,13.48,5.13,139.2
"2010-01-10 00:06:30",1578531,7.869,176.5,6.543,1.257,7.824,101.9833,4.361,5.528,14.46,0,109.7,13.47,5.13,138.5
"2010-01-10 00:07:00",1578532,7.036,173,4.93,0.917,6.421,101.9709,4.329,5.466,14.41,0,109.7,13.48,5.10,135.0
"2010-01-10 00:07:30",1578533,8.49,179.5,5.059,1.008,9.32,101.9565,4.292,5.519,14.48,0,109.7,13.48,5.06,141.5
"2010-01-10 00:08:00",1578534,8.68,181.1,3.274,0.787,10.27,101.954,4.286,5.611,14.58,0,109.7,13.48,5.05,143.1
"2010-01-10 00:08:30",1578535,8.88,179.5,4.881,0.306,10.28,101.9574,4.295,5.568,14.6,0,109.7,13.48,5.06,141.5
"2010-01-10 00:09:00",1578536,8.31,177.2,6.156,1.147,8.79,101.958,4.296,5.506,14.53,0,109.7,13.48,5.06,139.2
"2010-01-10 00:09:30",1578537,6.984,170.2,5.427,1.038,6.112,101.9558,4.29,5.349,14.38,0,109.7,13.48,5.06,132.2
"2010-01-10 00:10:00",1578538,7.419,173.8,6.258,1.206,6.973,101.938,4.245,5.333,14.37,0,109.8,13.48,5.01,135.8
"2010-01-10 00:10:30",1578539,7.69,176.4,6.157,1.271,7.911,101.9281,4.22,5.511,14.57,0,109.7,13.48,4.99,138.4
"2010-01-10 00:11:00",1578540,8.86,180.5,3.984,0.71,10.17,101.9255,4.213,5.562,14.63,0,109.7,13.49,4.98,142.5
"2010-01-10 00:11:30",1578541,8.49,179.8,4.377,0.943,9.97,101.9255,4.213,5.526,14.6,0,109.7,13.49,4.98,141.8
"2010-01-10 00:12:00",1578542,8.26,179,4.886,0.939,9.53,101.9264,4.215,5.508,14.61,0,109.7,13.49,4.98,141.0
"2010-01-10 00:12:30",1578543,7.852,176.2,6.194,1.211,7.756,101.927,4.217,5.306,14.41,0,109.7,13.49,4.98,138.2
"2010-01-10 00:13:00",1578544,6.866,172.6,5.851,1.024,6.323,101.929,4.222,5.351,14.48,0,109.7,13.49,4.99,134.6
"2010-01-10 00:13:30",1578545,6.922,172,5.833,1.103,6.906,101.929,4.222,5.356,14.48,0,109.7,13.49,4.99,134.0
"2010-01-10 00:14:00",1578546,8.03,179,4.584,0.974,9.57,101.9259,4.214,5.484,14.6,0,109.7,13.49,4.98,141.0
"2010-01-10 00:15:30",1578547,8.24,179.2,4.555,0.872,9.69,101.9212,4.202,5.424,14.55,0,109.7,13.49,4.97,141.2
"2010-01-10 00:16:00",1578548,7.901,177.6,5.596,1.124,8.97,101.9245,4.21,5.437,14.58,0,109.7,13.49,4.98,139.6
"2010-01-10 00:16:30",1578549,7.681,176.8,6.273,1.227,8.26,101.9248,4.211,5.413,14.52,0,109.7,13.49,4.98,138.8
"2010-01-10 00:17:00",1578550,6.781,171.7,5.004,1.019,5.904,101.9251,4.212,5.25,14.38,0,109.7,13.49,4.98,133.7
"2010-01-10 00:17:30",1578551,7.853,177.7,6.242,1.187,8.49,101.9254,4.213,5.459,14.61,0,109.7,13.49,4.98,139.7
"2010-01-10 00:18:00",1578552,8,177.7,6.205,1.042,8.24,101.9217,4.203,5.331,14.55,0,109.7,13.5,4.97,139.7
"2010-01-10 00:18:30",1578553,8.01,177.8,5.811,1.106,9.09,101.92,4.199,5.423,14.63,0,109.7,13.5,4.97,139.8
"2010-01-10 00:19:00",1578554,7.856,177.7,5.935,1.081,8.94,101.9152,4.187,5.425,14.65,0,109.7,13.5,4.95,139.7
"2010-01-10 00:19:30",1578555,7.808,179.4,5.264,1.09,9.04,101.9127,4.18,5.426,14.69,0,109.7,13.5,4.95,141.4
"2010-01-10 00:20:00",1578556,6.995,174.2,6.008,1.203,7.014,101.9141,4.184,5.276,14.51,0,109.8,13.5,4.95,136.2
"2010-01-10 00:20:30",1578557,6.701,173.9,5.519,1.184,6.731,101.9155,4.187,5.288,14.53,0,109.8,13.5,4.95,135.9
"2010-01-10 00:21:00",1578558,7.299,178.7,6.389,1.214,8.02,101.9147,4.185,5.349,14.59,0,109.7,13.5,4.95,140.7
"2010-01-10 00:21:30",1578559,7.667,181,5.804,1.094,9,101.911,4.176,5.38,14.66,0,109.7,13.5,4.94,143.0
"2010-01-10 00:22:00",1578560,7.627,181.3,5.841,1.07,9.3,101.9107,4.175,5.422,14.66,0,109.7,13.5,4.94,143.3
"2010-01-10 00:22:30",1578561,7.833,183,4.734,0.873,9.67,101.9073,4.167,5.414,14.68,0,109.7,13.5,4.93,145.0
"2010-01-10 00:23:00",1578562,7.499,182.8,6.202,1.153,8.33,101.9073,4.167,5.375,14.59,0,109.7,13.5,4.93,144.8
"2010-01-10 00:23:30",1578563,6.335,177.1,3.976,0.834,5.655,101.9053,4.161,5.256,14.35,0,109.7,13.5,4.93,139.1
"2010-01-10 00:24:00",1578564,7.232,181.5,7.049,1.298,7.322,101.9115,4.177,5.298,14.35,0,109.7,13.5,4.94,143.5
"2010-01-10 00:24:30",1578565,7.795,184.5,5.633,1.082,8.93,101.9124,4.18,5.365,14.47,0,109.7,13.5,4.95,146.5
"2010-01-10 00:25:00",1578566,7.925,184.8,5.278,0.95,9.44,101.9164,4.19,5.39,14.52,0,109.7,13.5,4.96,146.8
"2010-01-10 00:25:30",1578567,7.989,185.4,6.289,1.111,9,101.9161,4.189,5.393,14.52,0,109.7,13.5,4.96,147.4
"2010-01-10 00:26:00",1578568,8.16,187.2,5.281,1.086,9.02,101.9138,4.183,5.38,14.42,0,109.7,13.5,4.95,149.2
"2010-01-10 00:26:30",1578569,6.925,180.7,5.751,1.097,6.735,101.9152,4.187,5.313,14.34,0,109.7,13.5,4.95,142.7
"2010-01-10 00:27:00",1578570,7.723,183.8,6.056,1.11,8.08,101.9189,4.196,5.327,14.38,0,109.7,13.5,4.96,145.8
"2010-01-10 00:27:30",1578571,6.93,180.7,5.584,1.119,7.049,101.9234,4.208,5.295,14.36,0,109.7,13.5,4.97,142.7
"2010-01-10 00:28:00",1578572,7.514,183,6.684,1.266,8.51,101.9263,4.215,5.462,14.57,0,109.7,13.5,4.98,145.0
"2010-01-10 00:28:30",1578573,7.993,185.6,5.563,1.06,9.09,101.9294,4.223,5.421,14.59,0,109.7,13.5,4.99,147.6
"2010-01-10 00:29:00",1578574,7.672,185.2,5.843,1.227,8.65,101.9311,4.227,5.485,14.57,0,109.7,13.5,4.99,147.2
"2010-01-10 00:29:30",1578575,7.333,181.8,6.659,1.218,7.215,101.9336,4.234,5.285,14.38,0,109.7,13.5,5.00,143.8
"2010-01-10 00:30:00",1578576,6.632,179.8,5.035,0.994,6.109,101.9339,4.234,5.335,14.49,0,109.7,13.5,5.00,141.8
"2010-01-10 00:30:30",1578577,7.063,183,5.283,1.156,6.983,101.9342,4.235,5.282,14.41,0,109.7,13.5,5.00,145.0
"2010-01-10 00:31:00",1578578,7.965,187.4,5.955,1.078,8.7,101.9345,4.236,5.435,14.48,0,109.7,13.5,5.00,149.4
"2010-01-10 00:31:30",1578579,8.39,190.4,3.759,0.775,9.73,101.9347,4.237,5.448,14.52,0,109.7,13.5,5.00,152.4
"2010-01-10 00:32:00",1578580,7.998,190,5.439,1.023,8.9,101.9339,4.234,5.418,14.47,0,109.7,13.5,5.00,152.0
"2010-01-10 00:32:30",1578581,7.216,185.9,6.232,1.258,7.094,101.9336,4.234,5.355,14.38,0,109.7,13.5,5.00,147.9
"2010-01-10 00:33:00",1578582,7.109,186.9,6.143,1.208,6.731,101.9336,4.234,5.277,14.34,0,109.7,13.5,5.00,148.9
"2010-01-10 00:33:30",1578583,7.042,188.9,6.343,1.205,7.668,101.9311,4.227,5.445,14.43,0,109.7,13.5,4.99,150.9
"2010-01-10 00:34:00",1578584,7.553,191.1,6.509,1.169,8.19,101.9305,4.226,5.323,14.25,0,109.7,13.5,4.99,153.1
"2010-01-10 00:34:30",1578585,8.18,193,5.572,0.885,9.71,101.928,4.219,5.479,14.42,0,109.7,13.5,4.99,155.0
"2010-01-10 00:35:00",1578586,7.902,193.3,5.656,1.053,9.37,101.9255,4.213,5.447,14.38,0,109.7,13.5,4.98,155.3
"2010-01-10 00:35:30",1578587,7.757,189.8,6.519,1.122,8.34,101.9244,4.21,5.444,14.32,0,109.7,13.5,4.98,151.8
"2010-01-10 00:36:00",1578588,7.087,187.4,6.165,1.163,7.213,101.9218,4.204,5.269,14.15,0,109.7,13.5,4.97,149.4
"2010-01-10 00:36:30",1578589,7.867,191,6.091,1.085,8.18,101.9218,4.204,5.364,14.29,0,109.7,13.5,4.97,153.0
"2010-01-10 00:37:00",1578590,6.607,184.3,5.598,1.057,6.462,101.9221,4.204,5.329,14.26,0,109.7,13.5,4.97,146.3
"2010-01-10 00:37:30",1578591,7.99,190.3,6.062,1.113,8.91,101.921,4.201,5.419,14.37,0,109.7,13.5,4.97,152.3
"2010-01-10 00:38:00",1578592,7.87,189.8,5.749,1.087,8.93,101.9221,4.204,5.458,14.41,0,109.7,13.5,4.97,151.8
"2010-01-10 00:38:30",1578593,7.839,189.6,6.19,1.129,8.9,101.9198,4.199,5.411,14.41,0,109.7,13.5,4.97,151.6
"2010-01-10 00:39:00",1578594,6.761,184.6,5.209,1.016,6.533,101.9199,4.199,5.348,14.34,0,109.7,13.5,4.97,146.6
"2010-01-10 00:39:30",1578595,6.737,183.4,5.984,1.007,6.017,101.9202,4.199,5.296,14.31,0,109.7,13.5,4.97,145.4
"2010-01-10 00:40:00",1578596,7.76,188.3,6.116,1.159,8.02,101.9196,4.198,5.398,14.44,0,109.7,13.5,4.96,150.3
"2010-01-10 00:40:30",1578597,7.475,186.6,6.307,1.24,7.395,101.9165,4.19,5.319,14.38,0,109.7,13.51,4.96,148.6
"2010-01-10 00:41:00",1578598,7.882,189.2,5.947,1.147,8.82,101.9222,4.205,5.445,14.55,0,109.7,13.51,4.97,151.2
"2010-01-10 00:41:30",1578599,7.756,187.6,5.968,1.253,8.38,101.9217,4.203,5.447,14.55,0,109.7,13.51,4.97,149.6
"2010-01-10 00:42:00",1578600,8.14,188.3,5.894,1.12,8.49,101.9209,4.201,5.434,14.57,0,109.7,13.51,4.97,150.3
"2010-01-10 00:42:30",1578601,6.953,181.3,5.724,1.108,6.096,101.9203,4.2,5.286,14.5,0,109.7,13.51,4.97,143.3
"2010-01-10 00:43:00",1578602,7.151,184.7,5.806,1.195,6.958,101.9243,4.21,5.407,14.59,0,109.7,13.51,4.98,146.7
"2010-01-10 00:43:30",1578603,7.702,188,6.35,1.185,8.22,101.9269,4.216,5.289,14.43,0,109.7,13.51,4.98,150.0
"2010-01-10 00:44:00",1578604,7.528,186.4,6.112,1.253,8.13,101.9314,4.228,5.455,14.64,0,109.7,13.51,4.99,148.4
"2010-01-10 00:44:30",1578605,7.982,187.3,5.857,1.095,9.19,101.9331,4.232,5.454,14.67,0,109.7,13.51,5.00,149.3
"2010-01-10 00:45:00",1578606,8.42,187.5,5.111,0.874,9.47,101.9346,4.236,5.5,14.77,0,109.7,13.51,5.00,149.5
"2010-01-10 00:45:30",1578607,7.936,186.2,5.926,1.194,8.22,101.9389,4.247,5.411,14.66,0,109.7,13.51,5.01,148.2
"2010-01-10 00:46:00",1578608,7.443,183,6.411,1.188,7.067,101.9374,4.243,5.368,14.62,0,109.7,13.51,5.01,145.0
"2010-01-10 00:46:30",1578609,6.713,179.4,5.098,0.869,6,101.9391,4.248,5.363,14.65,0,109.7,13.51,5.01,141.4
"2010-01-10 00:47:00",1578610,7.758,184.3,6.437,1.145,8.39,101.9397,4.249,5.465,14.71,0,109.7,13.51,5.02,146.3
"2010-01-10 00:47:30",1578611,8.2,188.2,4.774,0.998,9.24,101.9443,4.261,5.441,14.7,0,109.7,13.51,5.03,150.2
"2010-01-10 00:48:00",1578612,8.4,188,5.206,0.703,9.44,101.9446,4.262,5.428,14.64,0,109.7,13.51,5.03,150.0
"2010-01-10 00:48:30",1578613,7.643,185.2,6.187,1.254,7.719,101.9471,4.268,5.462,14.67,0,109.7,13.51,5.04,147.2
"2010-01-10 00:49:00",1578614,7.239,183.7,6.359,1.278,6.811,101.9508,4.277,5.27,14.48,0,109.7,13.51,5.04,145.7
"2010-01-10 00:49:30",1578615,6.631,181.8,5.494,1.004,6.284,101.9528,4.283,5.418,14.62,0,109.7,13.51,5.05,143.8
"2010-01-10 00:50:00",1578616,7.474,186.1,6.327,1.235,8.21,101.9539,4.285,5.432,14.62,0,109.7,13.51,5.05,148.1
"2010-01-10 00:50:30",1578617,8.52,191.9,2.46,0.629,9.81,101.9556,4.29,5.524,14.74,0,109.8,13.51,5.06,153.9
"2010-01-10 00:51:00",1578618,7.883,190,6.003,1.099,9.05,101.9556,4.29,5.454,14.68,0,109.7,13.51,5.06,152.0
"2010-01-10 00:51:30",1578619,7.001,187.8,6.424,1.243,7.279,101.9545,4.287,5.412,14.58,0,109.7,13.51,5.05,149.8
"2010-01-10 00:52:00",1578620,6.857,188.2,6.193,1.277,7.069,101.9536,4.285,5.328,14.43,0,109.7,13.51,5.05,150.2
"2010-01-10 00:52:30",1578621,6.039,189.2,6.255,1.071,6.732,101.9545,4.287,5.394,14.48,0,109.7,13.5,5.05,151.2
"2010-01-10 00:53:00",1578622,5.994,187.7,5.705,1.018,6.45,101.9517,4.28,5.34,14.39,0,109.7,13.51,5.05,149.7
"2010-01-10 00:53:30",1578623,7.148,194.3,5.806,1.139,9.33,101.9494,4.274,5.501,14.56,0,109.7,13.51,5.04,156.3
"2010-01-10 00:54:00",1578624,7.217,197,4.898,1.021,9.36,101.9446,4.262,5.459,14.53,0,109.7,13.51,5.03,159.0
"2010-01-10 00:54:30",1578625,6.998,196.5,5.619,1.103,9,101.942,4.255,5.452,14.51,0,109.7,13.51,5.02,158.5
"2010-01-10 00:55:00",1578626,5.802,190.7,5.337,1.075,6.753,101.9426,4.257,5.352,14.42,0,109.7,13.5,5.02,152.7
"2010-01-10 00:55:30",1578627,6.304,193.1,6.543,1.205,7.506,101.9429,4.258,5.314,14.32,0,109.7,13.51,5.02,155.1
"2010-01-10 00:56:00",1578628,6.71,196.4,6.666,1.239,8.23,101.939,4.247,5.378,14.39,0,109.8,13.51,5.01,158.4
"2010-01-10 00:56:30",1578629,6.643,196.9,6.46,1.27,8.62,101.9356,4.239,5.447,14.41,0,109.7,13.51,5.01,158.9
"2010-01-10 00:57:00",1578630,7.187,198,5.782,1.076,9.27,101.9334,4.233,5.454,14.41,0,109.7,13.51,5.00,160.0
"2010-01-10 00:57:30",1578631,7.062,198.3,5.888,1.138,9.24,101.9319,4.229,5.443,14.41,0,109.7,13.51,5.00,160.3
"2010-01-10 00:58:00",1578632,7.203,198.4,5.482,1.102,9.42,101.9317,4.229,5.42,14.35,0,109.7,13.51,5.00,160.4
"2010-01-10 00:58:30",1578633,5.806,191.1,5.022,0.94,6.551,101.9337,4.234,5.324,14.26,0,109.7,13.51,5.00,153.1
"2010-01-10 00:59:00",1578634,7.035,196.5,5.711,1.127,8.55,101.934,4.235,5.388,14.34,0,109.7,13.51,5.00,158.5
"2010-01-10 00:59:30",1578635,6.946,194.5,6.232,1.279,8.14,101.9334,4.233,5.392,14.36,0,109.7,13.51,5.00,156.5
"2010-01-10 01:00:00",1578636,7.844,194.7,6.23,1.153,9.03,101.9325,4.231,5.431,14.45,0,109.7,13.52,5.00,156.7
"2010-01-10 01:00:30",1578637,7.942,196.4,5.778,1.161,9.44,101.9334,4.233,5.471,14.5,0,109.7,13.51,5.00,158.4
"2010-01-10 01:01:00",1578638,8.14,198.9,4.819,0.89,10.17,101.9317,4.229,5.486,14.54,0,109.7,13.51,5.00,160.9
"2010-01-10 01:01:30",1578639,7.672,196.3,6.36,1.214,8.45,101.9337,4.234,5.373,14.36,0,109.7,13.52,5.00,158.3
"2010-01-10 01:02:00",1578640,7.848,197.2,5.854,1.205,8.77,101.9319,4.229,5.445,14.4,0,109.7,13.51,5.00,159.2
"2010-01-10 01:02:30",1578641,7.857,194.3,6.378,1.271,7.669,101.9342,4.235,5.233,14.17,0,109.7,13.51,5.00,156.3
"2010-01-10 01:03:00",1578642,8.16,194.7,6.352,1.289,8.17,101.9325,4.231,5.378,14.3,0,109.7,13.52,5.00,156.7
"2010-01-10 01:03:30",1578643,8.63,198.8,5.796,1.138,9.55,101.9337,4.234,5.477,14.4,0,109.7,13.52,5.00,160.8
"2010-01-10 01:04:00",1578644,8.65,199.5,5.657,1.141,9.74,101.9337,4.234,5.478,14.43,0,109.7,13.52,5.00,161.5
"2010-01-10 01:04:30",1578645,8.88,200.5,5.728,1.067,9.27,101.9322,4.23,5.417,14.35,0,109.7,13.51,5.00,162.5
"2010-01-10 01:05:00",1578646,8.15,196.6,6.487,1.205,7.444,101.9334,4.233,5.307,14.28,0,109.7,13.51,5.00,158.6
"2010-01-10 01:05:30",1578647,8.61,198,6.104,1.256,8.43,101.9342,4.235,5.443,14.44,0,109.7,13.51,5.00,160.0
"2010-01-10 01:06:00",1578648,8.59,196.5,5.991,1.285,7.741,101.9342,4.235,5.297,14.32,0,109.7,13.51,5.00,158.5
"2010-01-10 01:06:30",1578649,8.98,198.9,5.664,1.161,9.4,101.9319,4.229,5.492,14.51,0,109.6,13.52,5.00,160.9
"2010-01-10 01:07:00",1578650,9.41,199.7,5.207,0.854,10.15,101.9328,4.232,5.447,14.45,0,109.7,13.52,5.00,161.7
"2010-01-10 01:07:30",1578651,9.6,201.7,3.627,0.647,10.44,101.9317,4.229,5.523,14.48,0,109.7,13.51,5.00,163.7
"2010-01-10 01:08:00",1578652,8.85,197.8,6.466,1.165,8.49,101.9331,4.232,5.412,14.37,0,109.7,13.51,5.00,159.8
"2010-01-10 01:08:30",1578653,7.92,194.5,5.356,1.037,6.725,101.934,4.235,5.419,14.33,0,109.7,13.51,5.00,156.5
"2010-01-10 01:09:00",1578654,8.08,196,5.079,1.153,6.564,101.934,4.235,5.263,14.16,0,109.7,13.51,5.00,158.0
"2010-01-10 01:09:30",1578655,9.33,204.8,5.171,1.1,9.32,101.9334,4.233,5.453,14.31,0,109.7,13.51,5.00,166.8
"2010-01-10 01:10:00",1578656,8.96,204.9,5.318,1.304,9.56,101.9382,4.245,5.511,14.46,0,109.7,13.51,5.01,166.9
"2010-01-10 01:10:30",1578657,9.46,208.9,3.17,0.782,10.16,101.9407,4.252,5.55,14.5,0,109.7,13.51,5.02,170.9
"2010-01-10 01:11:00",1578658,9.09,207.9,5.781,1.049,9.28,101.9473,4.269,5.493,14.47,0,109.7,13.51,5.04,169.9
"2010-01-10 01:11:30",1578659,8.24,205,5.854,1.046,7.446,101.9492,4.274,5.376,14.31,0,109.7,13.51,5.04,167.0
"2010-01-10 01:12:00",1578660,7.209,200.6,5.005,0.851,6.497,101.9492,4.274,5.383,14.3,0,109.7,13.51,5.04,162.6
"2010-01-10 01:12:30",1578661,8.07,203.7,6.014,1.245,8.21,101.9475,4.269,5.431,14.32,0,109.8,13.51,5.04,165.7
"2010-01-10 01:13:00",1578662,8.91,208.7,5.068,0.934,10.57,101.952,4.281,5.507,14.39,0,109.7,13.51,5.05,170.7
"2010-01-10 01:13:30",1578663,8.72,209.7,4.409,0.945,10.14,101.9568,4.293,5.517,14.56,0,109.7,13.52,5.06,171.7
"2010-01-10 01:14:00",1578664,8.87,210.4,3.894,0.648,10.27,101.9608,4.303,5.538,14.67,0,109.6,13.51,5.07,172.4
"2010-01-10 01:14:30",1578665,8.17,209.6,5.387,1.124,9.13,101.9668,4.318,5.5,14.77,0,109.7,13.51,5.09,171.6
"2010-01-10 01:15:00",1578666,7.145,202,5.786,1.065,7.03,101.9673,4.32,5.424,14.79,0,109.7,13.51,5.09,164.0
"2010-01-10 01:15:30",1578667,7.088,202.9,6.531,0.852,6.974,101.9673,4.32,5.419,14.62,0,109.7,13.52,5.09,164.9
"2010-01-10 01:16:00",1578668,7.834,209.6,6.172,1.24,8.61,101.9673,4.32,5.488,14.57,0,109.7,13.52,5.09,171.6
"2010-01-10 01:16:30",1578669,8.01,214.1,4.629,1.093,10.41,101.9676,4.321,5.577,14.62,0,109.7,13.52,5.09,176.1
"2010-01-10 01:17:00",1578670,7.843,212.2,5.806,1.023,9.7,101.9699,4.326,5.527,14.54,0,109.7,13.52,5.09,174.2
"2010-01-10 01:17:30",1578671,7.537,208.7,5.4,1.139,9.29,101.984,4.362,5.525,14.57,0,109.7,13.52,5.13,170.7
"2010-01-10 01:18:00",1578672,6.554,204.1,5.019,1.051,7.126,101.997,4.396,5.425,14.53,0,109.7,13.52,5.16,166.1
"2010-01-10 01:18:30",1578673,7.449,211,6.889,1.215,8.75,102.0016,4.407,5.544,14.7,0,109.7,13.52,5.17,173.0
"2010-01-10 01:19:00",1578674,7.346,213.4,6.497,1.212,8.92,102.0013,4.406,5.593,14.91,0,109.7,13.52,5.17,175.4
"2010-01-10 01:19:30",1578675,7.676,214.4,6.261,1.131,9,102.001,4.406,5.576,15.23,0,109.7,13.52,5.17,176.4
"2010-01-10 01:20:00",1578676,7.617,216.7,6.137,1.128,9.7,102.0021,4.409,5.559,15.44,0,109.7,13.52,5.18,178.7
"2010-01-10 01:20:30",1578677,7.184,214.8,6.471,1.154,8.9,102.008,4.424,5.627,15.73,0,109.7,13.52,5.19,176.8
"2010-01-10 01:21:00",1578678,6.594,215.1,5.477,1.37,8.05,102.0162,4.445,5.423,16.14,0,109.7,13.52,5.21,177.1
"2010-01-10 01:21:30",1578679,7.158,214.9,6.073,1.218,8.98,102.0281,4.475,5.566,17.16,0,109.7,13.52,5.24,176.9
"2010-01-10 01:22:00",1578680,7.123,214.5,5.687,1.194,9.23,102.0326,4.486,5.68,16.67,0,109.7,13.52,5.25,176.5
"2010-01-10 01:22:30",1578681,6.289,210.7,4.171,1.113,7.384,102.0343,4.491,5.559,16.45,0,109.7,13.52,5.26,172.7
"2010-01-10 01:23:00",1578682,7.308,215.5,6.559,1.151,9.56,102.0332,4.488,5.696,16.67,0,109.7,13.52,5.26,177.5
"2010-01-10 01:23:30",1578683,6.878,215.2,6.007,1.236,9.29,102.0346,4.492,5.717,16.54,0,109.7,13.52,5.26,177.2
"2010-01-10 01:24:00",1578684,7.382,218.8,5.408,1.023,9.53,102.0369,4.497,5.616,16.59,0,109.7,13.51,5.27,180.8
"2010-01-10 01:24:30",1578685,6.793,219.4,5.696,1.11,9.54,102.0465,4.522,5.707,17.57,0,109.7,13.51,5.29,181.4
"2010-01-10 01:25:00",1578686,6.208,219.2,6.572,1.224,8.49,102.0581,4.552,5.67,19.23,0,109.7,13.51,5.32,181.2
"2010-01-10 01:25:30",1578687,5.761,218.2,6.972,1.259,7.673,102.0669,4.574,5.572,20.25,0,109.7,13.51,5.34,180.2
"2010-01-10 01:26:00",1578688,5.879,218.4,6.243,1.248,8.11,102.0697,4.581,5.69,20.64,0,109.8,13.51,5.35,180.4
"2010-01-10 01:26:30",1578689,6.284,222.3,6.369,1.202,9.32,102.0703,4.583,5.758,21.4,0,109.7,13.51,5.35,184.3
"2010-01-10 01:27:00",1578690,6.535,225.3,5.321,0.874,9.84,102.0703,4.583,5.717,22.26,0,109.7,13.51,5.35,187.3
"2010-01-10 01:27:30",1578691,6.369,222.5,5.704,1.049,9.87,102.0706,4.583,5.77,22.6,0,109.7,13.51,5.35,184.5
"2010-01-10 01:28:00",1578692,5.751,222.3,6.254,1.226,8.45,102.0706,4.583,5.714,22.82,0,109.7,13.51,5.35,184.3
"2010-01-10 01:28:30",1578693,5.4,220.9,5.815,1.256,7.793,102.0706,4.583,5.709,22.97,0,109.7,13.52,5.35,182.9
"2010-01-10 01:29:00",1578694,5.333,217.1,6.092,1.226,7.698,102.0706,4.583,5.713,23.07,0,109.7,13.52,5.35,179.1
"2010-01-10 01:29:30",1578695,6.055,219.4,6.047,1.233,8.86,102.07,4.582,5.696,22.97,0,109.7,13.52,5.35,181.4
"2010-01-10 01:30:00",1578696,5.78,221.8,6.293,1.261,8.74,102.0703,4.583,5.81,23.09,0,109.7,13.53,5.35,183.8
"2010-01-10 01:30:30",1578697,6.393,220.8,5.55,1.144,9.71,102.0706,4.583,5.841,23.18,0,109.7,13.53,5.35,182.8
"2010-01-10 01:31:00",1578698,5.715,219.4,6.038,1.239,8.26,102.0712,4.585,5.778,23.06,0,109.7,13.53,5.35,181.4
"2010-01-10 01:31:30",1578699,5.45,221.1,6.165,1.245,7.673,102.0717,4.586,5.674,23.03,0,109.7,13.52,5.35,183.1
"2010-01-10 01:32:00",1578700,5.811,224.9,6.898,1.255,8.34,102.0723,4.588,5.752,23.27,0,109.7,13.53,5.36,186.9
"2010-01-10 01:32:30",1578701,5.554,225.1,6.297,1.248,8.46,102.0717,4.586,5.722,23.4,0,109.7,13.53,5.35,187.1
"2010-01-10 01:33:00",1578702,6.002,228.7,6.207,1.147,9.86,102.0751,4.595,5.866,23.69,0,109.7,13.53,5.36,190.7
"2010-01-10 01:33:30",1578703,6.613,232.2,3.928,0.392,10.87,102.074,4.592,5.851,23.72,0,109.7,13.53,5.36,194.2
"2010-01-10 01:34:00",1578704,5.507,225.3,6.253,1.245,8.04,102.0729,4.589,5.822,23.67,0,109.7,13.53,5.36,187.3
"2010-01-10 01:34:30",1578705,5.284,225.9,6.558,1.252,7.688,102.0723,4.588,5.733,23.59,0,109.7,13.53,5.36,187.9
"2010-01-10 01:35:00",1578706,5.255,226.2,6.47,1.209,7.797,102.0737,4.591,5.752,23.63,0,109.7,13.53,5.36,188.2
"2010-01-10 01:35:30",1578707,5.149,227.5,6.985,1.204,8.32,102.0714,4.586,5.783,23.73,0,109.7,13.53,5.35,189.5
"2010-01-10 01:36:00",1578708,5.943,232.5,5.684,1.111,9.61,102.0714,4.586,5.846,23.87,0,109.7,13.53,5.35,194.5
"2010-01-10 01:36:30",1578709,6.422,236.7,1.856,0.758,10.58,102.0706,4.583,5.881,23.94,0,109.7,13.53,5.35,198.7
"2010-01-10 01:37:00",1578710,5.423,232,6.245,1.236,8.33,102.0706,4.583,5.809,23.93,0,109.7,13.53,5.35,194.0
"2010-01-10 01:37:30",1578711,5.065,228.9,6.388,1.206,7.406,102.0706,4.583,5.758,23.95,0,109.7,13.53,5.35,190.9
"2010-01-10 01:38:00",1578712,4.324,223.4,3.852,0.631,6.302,102.0706,4.583,5.736,23.99,0,109.7,13.53,5.35,185.4
"2010-01-10 01:38:30",1578713,4.119,221.9,1.218,0.027,6.175,102.0706,4.583,5.692,24,0,109.7,13.56,5.35,183.9
"2010-01-10 01:39:00",1578714,6.32,233.3,3.986,0.78,10.59,102.0706,4.583,5.836,24.18,0,109.7,13.53,5.35,195.3
"2010-01-10 01:39:30",1578715,6.286,232.9,4.083,0.726,10.81,102.0706,4.583,5.889,24.23,0,109.7,13.53,5.35,194.9
"2010-01-10 01:40:00",1578716,6.37,232.4,4.63,0.765,10.2,102.0706,4.583,5.804,24.13,0,109.7,13.53,5.35,194.4
"2010-01-10 01:40:30",1578717,5.127,226.2,6.292,1.228,7.568,102.0706,4.583,5.728,24.11,0,109.7,13.52,5.35,188.2
"2010-01-10 01:41:00",1578718,4.354,224.4,3.548,0.628,6.224,102.0706,4.583,5.718,24.05,0,109.7,13.53,5.35,186.4
"2010-01-10 01:41:30",1578719,4.703,226.7,5.164,0.95,6.771,102.0706,4.583,5.642,24.03,0,109.7,13.52,5.35,188.7
"2010-01-10 01:42:00",1578720,6.395,236,4.347,0.945,10.34,102.0697,4.581,5.817,24.23,0,109.7,13.52,5.35,198.0
"2010-01-10 01:42:30",1578721,6.497,236.1,3.58,0.8,10.96,102.0638,4.566,5.888,24.17,0,109.7,13.53,5.33,198.1
"2010-01-10 01:43:00",1578722,6.429,234,5,0.863,10.2,102.0565,4.547,5.876,24.02,0,109.7,13.52,5.32,196.0
"2010-01-10 01:43:30",1578723,4.746,225.1,4.867,0.961,6.622,102.0536,4.54,5.64,23.78,0,109.7,13.52,5.31,187.1
"2010-01-10 01:44:00",1578724,5.294,227.5,6.52,1.217,7.487,102.0517,4.535,5.59,23.78,0,109.7,13.52,5.30,189.5
"2010-01-10 01:44:30",1578725,4.568,223.7,4.443,0.935,6.396,102.0485,4.527,5.552,23.69,0,109.7,13.53,5.29,185.7
"2010-01-10 01:45:00",1578726,5.727,230.8,5.949,1.17,9.47,102.042,4.511,5.81,23.97,0,109.7,13.53,5.28,192.8
"2010-01-10 01:45:30",1578727,6.137,232.2,5.158,1.027,10.26,102.0389,4.503,5.829,24.05,0,109.7,13.53,5.27,194.2
"2010-01-10 01:46:00",1578728,6.347,235,2.843,0.785,10.69,102.0367,4.497,5.83,24.16,0,109.7,13.53,5.26,197.0
"2010-01-10 01:46:30",1578729,5.132,227.4,6.205,1.17,7.661,102.0367,4.497,5.754,23.86,0,109.7,13.53,5.26,189.4
"2010-01-10 01:47:00",1578730,5.273,227.6,6.584,1.241,7.535,102.0367,4.497,5.582,23.22,0,109.7,13.53,5.26,189.6
"2010-01-10 01:47:30",1578731,4.235,222,0.268,0.018,5.823,102.0367,4.497,5.598,22.91,0,109.7,13.57,5.26,184.0
"2010-01-10 01:48:00",1578732,5.897,230.8,6.276,1.222,9.38,102.0367,4.497,5.725,22.84,0,109.7,13.53,5.26,192.8
"2010-01-10 01:48:30",1578733,6.498,233.4,5.603,0.804,10.35,102.0367,4.497,5.827,22.91,0,109.7,13.54,5.26,195.4
"2010-01-10 01:49:00",1578734,6.593,234.6,3.689,0.683,10.72,102.0367,4.497,5.809,22.94,0,109.7,13.54,5.26,196.6
"2010-01-10 01:49:30",1578735,6.109,229.3,6.069,1.183,9.54,102.0367,4.497,5.741,22.75,0,109.7,13.53,5.26,191.3